UAL8891 KMCO-GOBD

Flight info

Callsign UAL8891
Flight time 7h 22m
Altitude 37000
Route MZULO3 LENDS M203 SNAGY 2960N 2957N 2950N 2945N 2842N 2740N 2434N ULTEM UR976 LUMPO R976 LIGOV
Aircraft B772/H-SDE2E3FGHIJ5LORVWXY/LB1D1

Departure

Time 2026-04-25 14:12
Airport Orlando International Airport (KMCO)

Arrival

Time 2026-04-25 21:35
Airport Blaise Diagne International Airport (GOBD)
Time Latitude Longitude Altitude Speed Heading
2026-04-25 12:58 28.43848 -81.33052 100 ft 0 kts
2026-04-25 13:46 28.43851 -81.33052 100 ft 1 kts
2026-04-25 13:47 28.43864 -81.33050 100 ft 2 kts 18°
2026-04-25 13:47 28.43884 -81.33036 100 ft 4 kts 42°
2026-04-25 13:47 28.43907 -81.33003 100 ft 6 kts 53°
2026-04-25 13:47 28.43926 -81.32964 100 ft 5 kts 88°
2026-04-25 13:48 28.43900 -81.32937 100 ft 6 kts 167°
2026-04-25 13:48 28.43851 -81.32932 100 ft 8 kts 179°
2026-04-25 13:48 28.43770 -81.32931 100 ft 12 kts 180°
2026-04-25 13:48 28.43687 -81.32922 100 ft 10 kts 153°
2026-04-25 13:49 28.43667 -81.32848 100 ft 7 kts 87°
2026-04-25 13:49 28.43668 -81.32831 100 ft 0 kts 88°
2026-04-25 13:49 28.43670 -81.32785 100 ft 14 kts 88°
2026-04-25 13:50 28.43696 -81.32631 100 ft 20 kts 62°
2026-04-25 13:50 28.43760 -81.32503 100 ft 16 kts 72°
2026-04-25 13:50 28.43735 -81.32453 100 ft 8 kts 178°
2026-04-25 13:50 28.43656 -81.32452 100 ft 15 kts 179°
2026-04-25 13:51 28.43550 -81.32451 100 ft 15 kts 180°
2026-04-25 13:51 28.43435 -81.32449 100 ft 17 kts 180°
2026-04-25 13:51 28.43309 -81.32449 100 ft 17 kts 179°
2026-04-25 13:51 28.43185 -81.32447 100 ft 17 kts 179°
2026-04-25 13:52 28.43107 -81.32446 100 ft 17 kts 179°
2026-04-25 13:52 28.42989 -81.32446 100 ft 17 kts 179°
2026-04-25 13:52 28.42866 -81.32443 101 ft 17 kts 180°
2026-04-25 13:52 28.42745 -81.32443 101 ft 17 kts 180°
2026-04-25 13:53 28.42623 -81.32443 101 ft 17 kts 180°
2026-04-25 13:53 28.42517 -81.32417 101 ft 13 kts 140°
2026-04-25 13:53 28.42491 -81.32362 100 ft 0 kts 116°
2026-04-25 13:54 28.42448 -81.32268 100 ft 23 kts 121°
2026-04-25 13:54 28.42374 -81.32126 99 ft 15 kts 121°
2026-04-25 13:55 28.42343 -81.32006 98 ft 15 kts 89°
2026-04-25 13:55 28.42347 -81.31860 97 ft 21 kts 89°
2026-04-25 13:55 28.42347 -81.31765 96 ft 11 kts 90°
2026-04-25 13:55 28.42347 -81.31664 95 ft 13 kts 90°
2026-04-25 13:56 28.42347 -81.31553 95 ft 14 kts 90°
2026-04-25 13:56 28.42351 -81.31433 94 ft 15 kts 88°
2026-04-25 13:56 28.42353 -81.31305 93 ft 16 kts 90°
2026-04-25 13:56 28.42344 -81.31173 93 ft 17 kts 96°
2026-04-25 13:57 28.42320 -81.31041 93 ft 17 kts 100°
2026-04-25 13:57 28.42316 -81.30996 93 ft 17 kts 91°
2026-04-25 13:57 28.42330 -81.30772 94 ft 17 kts 86°
2026-04-25 13:57 28.42338 -81.30637 95 ft 17 kts 86°
2026-04-25 13:58 28.42343 -81.30560 95 ft 0 kts 85°
2026-04-25 13:59 28.42346 -81.30523 95 ft 12 kts 85°
2026-04-25 13:59 28.42354 -81.30423 95 ft 13 kts 85°
2026-04-25 13:59 28.42359 -81.30318 96 ft 13 kts 87°
2026-04-25 13:59 28.42361 -81.30211 96 ft 13 kts 90°
2026-04-25 14:00 28.42361 -81.30100 96 ft 14 kts 90°
2026-04-25 14:00 28.42362 -81.29981 96 ft 15 kts 90°
2026-04-25 14:00 28.42362 -81.29860 96 ft 15 kts 90°
2026-04-25 14:00 28.42431 -81.29790 96 ft 15 kts 358°
2026-04-25 14:01 28.42540 -81.29794 96 ft 16 kts 359°
2026-04-25 14:01 28.42654 -81.29796 97 ft 16 kts 360°
2026-04-25 14:01 28.42773 -81.29797 97 ft 17 kts 359°
2026-04-25 14:01 28.42891 -81.29798 97 ft 14 kts 360°
2026-04-25 14:02 28.42949 -81.29799 97 ft 6 kts 359°
2026-04-25 14:02 28.42953 -81.29799 97 ft 0 kts 359°
2026-04-25 14:02 28.42954 -81.29799 97 ft 0 kts 359°
2026-04-25 14:03 28.43013 -81.29800 97 ft 6 kts 359°
2026-04-25 14:03 28.43016 -81.29800 97 ft 0 kts 360°
2026-04-25 14:05 28.43025 -81.29800 97 ft 5 kts 359°
2026-04-25 14:05 28.43103 -81.29800 97 ft 14 kts 359°
2026-04-25 14:05 28.43207 -81.29802 97 ft 12 kts 358°
2026-04-25 14:06 28.43254 -81.29803 97 ft 0 kts
2026-04-25 14:06 28.43284 -81.29803 97 ft 12 kts
2026-04-25 14:06 28.43374 -81.29803 97 ft 13 kts 359°
2026-04-25 14:07 28.43469 -81.29804 97 ft 8 kts
2026-04-25 14:07 28.43526 -81.29803 97 ft 1 kts 12°
2026-04-25 14:07 28.43528 -81.29803 97 ft 0 kts 17°
2026-04-25 14:08 28.43535 -81.29798 97 ft 4 kts 32°
2026-04-25 14:08 28.43551 -81.29758 97 ft 0 kts 89°
2026-04-25 14:08 28.43550 -81.29742 97 ft 5 kts 92°
2026-04-25 14:09 28.43550 -81.29732 97 ft 0 kts 91°
2026-04-25 14:09 28.43550 -81.29731 97 ft 1 kts 91°
2026-04-25 14:10 28.43549 -81.29627 97 ft 7 kts 95°
2026-04-25 14:10 28.43507 -81.29589 97 ft 0 kts 177°
2026-04-25 14:11 28.43430 -81.29586 97 ft 36 kts 179°
2026-04-25 14:11 28.42919 -81.29581 97 ft 109 kts 180°
2026-04-25 14:11 28.41946 -81.29570 98 ft 168 kts 180°
2026-04-25 14:12 28.40679 -81.29562 489 ft 185 kts 180°
2026-04-25 14:12 28.39383 -81.29519 1217 ft 192 kts 178°
2026-04-25 14:12 28.38115 -81.29208 1867 ft 192 kts 153°
2026-04-25 14:12 28.36942 -81.28346 2203 ft 210 kts 145°
2026-04-25 14:13 28.35759 -81.27286 2573 ft 226 kts 129°
2026-04-25 14:13 28.35124 -81.25602 2895 ft 245 kts 94°
2026-04-25 14:13 28.35414 -81.23646 3274 ft 261 kts 73°
2026-04-25 14:13 28.35993 -81.21671 3956 ft 266 kts 72°
2026-04-25 14:14 28.36600 -81.19644 4670 ft 270 kts 71°
2026-04-25 14:14 28.37201 -81.17638 5375 ft 272 kts 71°
2026-04-25 14:14 28.37815 -81.15588 6060 ft 276 kts 71°
2026-04-25 14:14 28.38428 -81.13541 6732 ft 279 kts 70°
2026-04-25 14:15 28.39058 -81.11436 7392 ft 283 kts 70°
2026-04-25 14:15 28.39270 -81.10728 7612 ft 284 kts 70°
2026-04-25 14:15 28.40331 -81.07179 8660 ft 290 kts 70°
2026-04-25 14:15 28.40984 -81.04992 9310 ft 293 kts 69°
2026-04-25 14:16 28.41635 -81.02811 9920 ft 297 kts 69°
2026-04-25 14:16 28.42305 -81.00568 10365 ft 307 kts 69°
2026-04-25 14:16 28.43011 -80.98206 10631 ft 324 kts 69°
2026-04-25 14:16 28.43749 -80.95734 10911 ft 339 kts 69°
2026-04-25 14:17 28.44166 -80.94335 11048 ft 348 kts 69°
2026-04-25 14:17 28.44720 -80.92477 11234 ft 359 kts 69°
2026-04-25 14:17 28.45424 -80.90109 11478 ft 372 kts 69°
2026-04-25 14:17 28.46266 -80.87273 11792 ft 385 kts 69°
2026-04-25 14:18 28.47114 -80.84403 12297 ft 391 kts 69°
2026-04-25 14:18 28.47772 -80.81373 12908 ft 397 kts 78°
2026-04-25 14:18 28.48147 -80.78272 13507 ft 401 kts 80°
2026-04-25 14:18 28.48503 -80.75083 13925 ft 407 kts 80°
2026-04-25 14:19 28.48859 -80.71885 13974 ft 407 kts 81°
2026-04-25 14:19 28.49210 -80.68718 13976 ft 405 kts 81°
2026-04-25 14:19 28.49559 -80.65559 13979 ft 406 kts 80°
2026-04-25 14:19 28.49917 -80.62330 14191 ft 416 kts 80°
2026-04-25 14:20 28.50276 -80.59083 14986 ft 413 kts 81°
2026-04-25 14:20 28.50390 -80.58044 15239 ft 413 kts 80°
2026-04-25 14:20 28.50985 -80.52643 16190 ft 419 kts 81°
2026-04-25 14:20 28.51351 -80.49314 16668 ft 425 kts 80°
2026-04-25 14:21 28.51458 -80.48333 16824 ft 426 kts 81°
2026-04-25 14:21 28.51825 -80.44983 17389 ft 430 kts 80°
2026-04-25 14:21 28.52195 -80.41595 17912 ft 434 kts 80°
2026-04-25 14:21 28.52564 -80.38210 18484 ft 436 kts 80°
2026-04-25 14:22 28.52795 -80.36086 18843 ft 438 kts 80°
2026-04-25 14:22 28.52988 -80.34308 19135 ft 440 kts 81°
2026-04-25 14:22 28.53398 -80.30874 19619 ft 442 kts 77°
2026-04-25 14:22 28.54234 -80.27466 20134 ft 442 kts 66°
2026-04-25 14:23 28.55395 -80.24272 20666 ft 443 kts 64°
2026-04-25 14:23 28.56625 -80.21034 21224 ft 444 kts 64°
2026-04-25 14:23 28.57847 -80.17821 21729 ft 447 kts 64°
2026-04-25 14:23 28.59082 -80.14569 22202 ft 450 kts 64°
2026-04-25 14:24 28.60324 -80.11293 22661 ft 453 kts 64°
2026-04-25 14:24 28.61566 -80.08015 23138 ft 456 kts 64°
2026-04-25 14:24 28.62818 -80.04705 23635 ft 458 kts 64°
2026-04-25 14:24 28.64079 -80.01368 24087 ft 461 kts 64°
2026-04-25 14:25 28.65338 -79.98033 24534 ft 463 kts 64°
2026-04-25 14:25 28.66609 -79.94662 25008 ft 465 kts 64°
2026-04-25 14:25 28.67879 -79.91292 25451 ft 467 kts 64°
2026-04-25 14:25 28.68309 -79.90148 25595 ft 467 kts 64°
2026-04-25 14:26 28.70445 -79.84469 26247 ft 471 kts 65°
2026-04-25 14:26 28.71743 -79.81014 26624 ft 474 kts 64°
2026-04-25 14:26 28.73037 -79.77566 26982 ft 476 kts 65°
2026-04-25 14:26 28.74321 -79.74143 27352 ft 478 kts 65°
2026-04-25 14:27 28.75630 -79.70647 27717 ft 480 kts 65°
2026-04-25 14:27 28.76936 -79.67158 28043 ft 482 kts 65°
2026-04-25 14:27 28.78258 -79.63625 28367 ft 484 kts 65°
2026-04-25 14:27 28.79566 -79.60120 28686 ft 486 kts 65°
2026-04-25 14:28 28.80974 -79.56624 28998 ft 486 kts 59°
2026-04-25 14:28 28.82785 -79.53354 29293 ft 486 kts 53°
2026-04-25 14:28 28.84763 -79.50194 29645 ft 487 kts 52°
2026-04-25 14:28 28.86735 -79.47068 30083 ft 485 kts 52°
2026-04-25 14:29 28.88671 -79.43995 30511 ft 483 kts 52°
2026-04-25 14:29 28.90642 -79.40862 30874 ft 483 kts 52°
2026-04-25 14:29 28.92607 -79.37736 31179 ft 483 kts 52°
2026-04-25 14:29 28.94571 -79.34605 31516 ft 483 kts 52°
2026-04-25 14:30 28.96526 -79.31488 31856 ft 483 kts 52°
2026-04-25 14:30 29.00434 -79.25246 32504 ft 483 kts 52°
2026-04-25 14:30 29.02386 -79.22122 32826 ft 482 kts 52°
2026-04-25 14:31 29.04335 -79.19003 32956 ft 485 kts 52°
2026-04-25 14:31 29.06272 -79.15900 32962 ft 484 kts 52°
2026-04-25 14:31 29.10152 -79.09676 32964 ft 481 kts 52°
2026-04-25 14:32 29.14038 -79.03434 32968 ft 480 kts 52°
2026-04-25 14:32 29.17886 -78.97242 32971 ft 480 kts 52°
2026-04-25 14:33 29.21746 -78.91023 32972 ft 480 kts 52°
2026-04-25 14:33 29.25627 -78.84760 32974 ft 481 kts 52°
2026-04-25 14:34 29.29482 -78.78529 32977 ft 481 kts 52°
2026-04-25 14:34 29.33324 -78.72310 32974 ft 481 kts 52°
2026-04-25 14:35 29.36830 -78.65771 32977 ft 485 kts 64°
2026-04-25 14:35 29.39129 -78.58495 32976 ft 485 kts 69°
2026-04-25 14:36 29.40608 -78.50967 32975 ft 489 kts 79°
2026-04-25 14:36 29.41592 -78.43310 32969 ft 489 kts 79°
2026-04-25 14:37 29.42571 -78.35626 32975 ft 489 kts 79°
2026-04-25 14:37 29.43553 -78.27895 32971 ft 489 kts 80°
2026-04-25 14:38 29.44217 -78.22652 32970 ft 490 kts 80°
2026-04-25 14:38 29.45189 -78.14951 32974 ft 489 kts 80°
2026-04-25 14:39 29.46159 -78.07232 32971 ft 488 kts 81°
2026-04-25 14:39 29.47120 -77.99548 32973 ft 487 kts 81°
2026-04-25 14:40 29.48072 -77.91900 32966 ft 488 kts 81°
2026-04-25 14:40 29.49029 -77.84172 32966 ft 489 kts 80°
2026-04-25 14:41 29.49975 -77.76499 32966 ft 489 kts 81°
2026-04-25 14:41 29.50923 -77.68774 32970 ft 490 kts 81°
2026-04-25 14:42 29.51551 -77.63625 32974 ft 489 kts 81°
2026-04-25 14:42 29.52799 -77.53359 32978 ft 489 kts 81°
2026-04-25 14:43 29.53733 -77.45631 32975 ft 489 kts 81°
2026-04-25 14:43 29.54662 -77.37900 32973 ft 488 kts 81°
2026-04-25 14:44 29.55579 -77.30239 32968 ft 488 kts 81°
2026-04-25 14:44 29.56499 -77.22507 32966 ft 488 kts 81°
2026-04-25 14:45 29.57406 -77.14858 32969 ft 488 kts 81°
2026-04-25 14:45 29.58314 -77.07149 32966 ft 489 kts 82°
2026-04-25 14:46 29.59220 -76.99423 32966 ft 489 kts 82°
2026-04-25 14:46 29.60121 -76.91698 32972 ft 488 kts 82°
2026-04-25 14:47 29.60686 -76.86527 32971 ft 488 kts 85°
2026-04-25 14:47 29.61017 -76.76194 32992 ft 488 kts 88°
2026-04-25 14:48 29.61217 -76.68432 32994 ft 488 kts 88°
2026-04-25 14:48 29.61416 -76.60635 32996 ft 488 kts 88°
2026-04-25 14:49 29.61609 -76.52907 32998 ft 488 kts 88°
2026-04-25 14:49 29.61799 -76.45124 32999 ft 488 kts 88°
2026-04-25 14:50 29.61986 -76.37334 33000 ft 489 kts 88°
2026-04-25 14:50 29.62167 -76.29558 33001 ft 489 kts 88°
2026-04-25 14:51 29.62346 -76.21730 33004 ft 488 kts 88°
2026-04-25 14:51 29.62518 -76.13957 33001 ft 489 kts 88°
2026-04-25 14:52 29.62686 -76.06205 33006 ft 488 kts 88°
2026-04-25 14:52 29.62795 -76.01049 33007 ft 488 kts 88°
2026-04-25 14:53 29.63008 -75.90665 33005 ft 489 kts 88°
2026-04-25 14:53 29.63164 -75.82852 33009 ft 488 kts 88°
2026-04-25 14:54 29.63312 -75.75124 33004 ft 488 kts 88°
2026-04-25 14:54 29.63459 -75.67307 33005 ft 488 kts 88°
2026-04-25 14:55 29.63600 -75.59529 33007 ft 488 kts 88°
2026-04-25 14:55 29.63735 -75.51794 33004 ft 487 kts 88°
2026-04-25 14:56 29.63867 -75.44017 33007 ft 487 kts 88°
2026-04-25 14:56 29.63994 -75.36298 32997 ft 486 kts 88°
2026-04-25 14:57 29.64116 -75.28547 32997 ft 487 kts 88°
2026-04-25 14:57 29.64234 -75.20799 33002 ft 487 kts 89°
2026-04-25 14:58 29.64348 -75.13007 33002 ft 486 kts 89°
2026-04-25 14:58 29.64457 -75.05245 33003 ft 487 kts 89°
2026-04-25 14:59 29.64561 -74.97502 33009 ft 486 kts 89°
2026-04-25 14:59 29.64660 -74.89789 33005 ft 486 kts 89°
2026-04-25 15:00 29.64755 -74.82038 33008 ft 485 kts 89°
2026-04-25 15:00 29.64846 -74.74300 33007 ft 485 kts 89°
2026-04-25 15:01 29.64932 -74.66569 33005 ft 486 kts 89°
2026-04-25 15:01 29.65014 -74.58827 33012 ft 486 kts 89°
2026-04-25 15:02 29.65078 -74.52469 33009 ft 486 kts 89°
2026-04-25 15:02 29.65151 -74.44734 33009 ft 486 kts 89°
2026-04-25 15:03 29.65220 -74.36990 33016 ft 486 kts 89°
2026-04-25 15:03 29.65285 -74.29193 33022 ft 486 kts 89°
2026-04-25 15:04 29.65345 -74.21472 33024 ft 486 kts 89°
2026-04-25 15:04 29.65401 -74.13734 33026 ft 486 kts 89°
2026-04-25 15:05 29.65452 -74.06023 33027 ft 485 kts 89°
2026-04-25 15:06 29.65520 -73.94399 33029 ft 485 kts 89°
2026-04-25 15:06 29.65559 -73.86697 33029 ft 485 kts 89°
2026-04-25 15:07 29.65595 -73.78949 33021 ft 486 kts 89°
2026-04-25 15:07 29.65625 -73.71258 33014 ft 485 kts 89°
2026-04-25 15:08 29.65652 -73.63489 33013 ft 484 kts 89°
2026-04-25 15:08 29.65673 -73.55820 33015 ft 483 kts 89°
2026-04-25 15:09 29.65688 -73.49532 33020 ft 483 kts 89°
2026-04-25 15:09 29.65707 -73.37962 33018 ft 484 kts 89°
2026-04-25 15:10 29.65713 -73.30872 33021 ft 484 kts 89°
2026-04-25 15:11 29.65716 -73.19257 33022 ft 485 kts 89°
2026-04-25 15:11 29.65712 -73.11546 33220 ft 490 kts 89°
2026-04-25 15:12 29.65704 -73.03817 34344 ft 481 kts 89°
2026-04-25 15:12 29.65698 -72.99961 34837 ft 478 kts 90°
2026-04-25 15:12 29.65691 -72.96169 35151 ft 478 kts 90°
2026-04-25 15:12 29.65688 -72.94886 35246 ft 479 kts 90°
2026-04-25 15:13 29.65674 -72.88527 35726 ft 479 kts 90°
2026-04-25 15:13 29.65653 -72.80910 36023 ft 482 kts 90°
2026-04-25 15:14 29.65627 -72.73224 36030 ft 478 kts 90°
2026-04-25 15:14 29.65597 -72.65620 36028 ft 480 kts 90°
2026-04-25 15:15 29.65562 -72.57984 36029 ft 479 kts 90°
2026-04-25 15:15 29.65523 -72.50312 36029 ft 480 kts 90°
2026-04-25 15:16 29.65480 -72.42690 36029 ft 480 kts 90°
2026-04-25 15:16 29.65407 -72.31187 36031 ft 479 kts 90°
2026-04-25 15:17 29.65324 -72.19748 36031 ft 480 kts 90°
2026-04-25 15:18 29.65262 -72.12064 36027 ft 480 kts 90°
2026-04-25 15:18 29.65163 -72.00592 36028 ft 480 kts 90°
2026-04-25 15:19 29.65115 -71.95429 36027 ft 480 kts 90°
2026-04-25 15:19 29.65014 -71.85229 36030 ft 481 kts 90°
2026-04-25 15:20 29.64933 -71.77557 36028 ft 481 kts 90°
2026-04-25 15:20 29.64848 -71.69909 36029 ft 483 kts 90°
2026-04-25 15:21 29.64758 -71.62234 36026 ft 481 kts 90°
2026-04-25 15:21 29.64664 -71.54559 36028 ft 481 kts 90°
2026-04-25 15:22 29.64565 -71.46874 36029 ft 482 kts 90°
2026-04-25 15:22 29.64462 -71.39215 36029 ft 483 kts 90°
2026-04-25 15:23 29.64354 -71.31490 36024 ft 482 kts 90°
2026-04-25 15:23 29.64242 -71.23811 36027 ft 484 kts 90°
2026-04-25 15:24 29.64125 -71.16129 36029 ft 483 kts 90°
2026-04-25 15:24 29.64044 -71.10964 36027 ft 483 kts 90°
2026-04-25 15:25 29.63878 -71.00718 36026 ft 483 kts 90°
2026-04-25 15:25 29.63782 -70.94985 36026 ft 484 kts 90°
2026-04-25 15:26 29.63648 -70.87277 36028 ft 484 kts 90°
2026-04-25 15:26 29.63510 -70.79580 36028 ft 484 kts 90°
2026-04-25 15:27 29.63368 -70.71867 36028 ft 484 kts 90°
2026-04-25 15:28 29.63144 -70.60238 36029 ft 486 kts 90°
2026-04-25 15:28 29.62989 -70.52446 36028 ft 485 kts 90°
2026-04-25 15:29 29.62830 -70.44727 36030 ft 486 kts 90°
2026-04-25 15:29 29.62666 -70.36943 36027 ft 486 kts 90°
2026-04-25 15:30 29.62498 -70.29183 36026 ft 487 kts 91°
2026-04-25 15:30 29.62325 -70.21426 36027 ft 487 kts 91°
2026-04-25 15:31 29.62148 -70.13686 36026 ft 487 kts 91°
2026-04-25 15:31 29.61965 -70.05885 36025 ft 489 kts 91°
2026-04-25 15:32 29.61779 -69.98129 36027 ft 488 kts 91°
2026-04-25 15:32 29.61587 -69.90337 36029 ft 489 kts 91°
2026-04-25 15:33 29.61289 -69.78577 36028 ft 489 kts 91°
2026-04-25 15:33 29.61086 -69.70784 36028 ft 488 kts 91°
2026-04-25 15:34 29.60876 -69.62931 36028 ft 488 kts 91°
2026-04-25 15:34 29.60736 -69.57756 36029 ft 489 kts 91°
2026-04-25 15:35 29.60342 -69.43603 36032 ft 492 kts 91°
2026-04-25 15:36 29.60000 -69.31783 36028 ft 490 kts 91°
2026-04-25 15:36 29.59769 -69.23980 36027 ft 490 kts 91°
2026-04-25 15:37 29.59534 -69.16172 36031 ft 492 kts 91°
2026-04-25 15:37 29.59293 -69.08333 36033 ft 488 kts 91°
2026-04-25 15:38 29.59047 -69.00502 36037 ft 490 kts 91°
2026-04-25 15:38 29.58799 -68.92718 36037 ft 491 kts 91°
2026-04-25 15:39 29.58543 -68.84858 36036 ft 492 kts 91°
2026-04-25 15:39 29.58283 -68.77018 36037 ft 495 kts 91°
2026-04-25 15:40 29.58108 -68.71786 36037 ft 494 kts 92°
2026-04-25 15:40 29.57749 -68.61293 36038 ft 496 kts 92°
2026-04-25 15:41 29.57474 -68.53426 36041 ft 496 kts 92°
2026-04-25 15:41 29.57194 -68.45521 36041 ft 496 kts 92°
2026-04-25 15:42 29.56909 -68.37621 36040 ft 496 kts 92°
2026-04-25 15:42 29.56618 -68.29702 36035 ft 496 kts 93°
2026-04-25 15:43 29.56323 -68.21793 36036 ft 497 kts 93°
2026-04-25 15:43 29.56025 -68.13903 36038 ft 498 kts 93°
2026-04-25 15:44 29.55721 -68.05994 36039 ft 497 kts 93°
2026-04-25 15:44 29.55411 -67.98061 36038 ft 498 kts 94°
2026-04-25 15:45 29.55098 -67.90175 36039 ft 499 kts 94°
2026-04-25 15:45 29.54885 -67.84860 36039 ft 498 kts 94°
2026-04-25 15:46 29.54456 -67.74329 36041 ft 499 kts 94°
2026-04-25 15:46 29.54126 -67.66379 36041 ft 499 kts 94°
2026-04-25 15:47 29.53793 -67.58452 36041 ft 500 kts 94°
2026-04-25 15:47 29.53453 -67.50485 36042 ft 501 kts 94°
2026-04-25 15:48 29.53110 -67.42529 36042 ft 501 kts 94°
2026-04-25 15:48 29.52760 -67.34540 36042 ft 502 kts 94°
2026-04-25 15:49 29.52405 -67.26569 36030 ft 502 kts 94°
2026-04-25 15:49 29.52046 -67.18593 36024 ft 502 kts 94°
2026-04-25 15:50 29.51681 -67.10575 36024 ft 503 kts 95°
2026-04-25 15:50 29.51311 -67.02584 36025 ft 503 kts 95°
2026-04-25 15:51 29.51061 -66.97241 36032 ft 505 kts 95°
2026-04-25 15:51 29.50714 -66.89872 36034 ft 504 kts 95°
2026-04-25 15:52 29.50419 -66.83693 36031 ft 505 kts 95°
2026-04-25 15:52 29.50145 -66.78005 36031 ft 506 kts 95°
2026-04-25 15:53 29.49754 -66.69988 36032 ft 507 kts 95°
2026-04-25 15:53 29.49357 -66.61923 36034 ft 507 kts 95°
2026-04-25 15:54 29.48952 -66.53816 36032 ft 510 kts 95°
2026-04-25 15:54 29.48543 -66.45711 36035 ft 511 kts 96°
2026-04-25 15:55 29.48129 -66.37623 36033 ft 511 kts 96°
2026-04-25 15:55 29.47708 -66.29479 36025 ft 512 kts 96°
2026-04-25 15:56 29.47282 -66.21341 36025 ft 512 kts 96°
2026-04-25 15:56 29.46851 -66.13200 36028 ft 515 kts 96°
2026-04-25 15:57 29.46414 -66.05030 36028 ft 514 kts 97°
2026-04-25 15:57 29.45971 -65.96860 36025 ft 513 kts 97°
2026-04-25 15:58 29.45522 -65.88676 36027 ft 519 kts 97°
2026-04-25 15:58 29.45066 -65.80441 36028 ft 519 kts 97°
2026-04-25 15:59 29.44606 -65.72238 36027 ft 517 kts 98°
2026-04-25 15:59 29.44141 -65.64029 36028 ft 519 kts 98°
2026-04-25 16:00 29.43824 -65.58493 36033 ft 521 kts 98°
2026-04-25 16:00 29.43185 -65.47430 36032 ft 522 kts 98°
2026-04-25 16:01 29.42699 -65.39133 36030 ft 522 kts 98°
2026-04-25 16:01 29.42207 -65.30814 36023 ft 525 kts 99°
2026-04-25 16:02 29.41708 -65.22452 36024 ft 523 kts 100°
2026-04-25 16:02 29.41207 -65.14160 36024 ft 525 kts 100°
2026-04-25 16:03 29.40699 -65.05835 36028 ft 525 kts 100°
2026-04-25 16:03 29.40181 -64.97452 36028 ft 528 kts 100°
2026-04-25 16:04 29.39660 -64.89074 36029 ft 528 kts 100°
2026-04-25 16:04 29.39132 -64.80689 36027 ft 526 kts 101°
2026-04-25 16:05 29.38595 -64.72265 36032 ft 534 kts 101°
2026-04-25 16:06 29.37786 -64.59640 36031 ft 525 kts 101°
2026-04-25 16:06 29.37237 -64.51251 36030 ft 532 kts 101°
2026-04-25 16:07 29.36677 -64.42745 36037 ft 533 kts 101°
2026-04-25 16:07 29.36121 -64.34329 36035 ft 527 kts 102°
2026-04-25 16:08 29.35555 -64.25911 36019 ft 530 kts 102°
2026-04-25 16:08 29.34977 -64.17406 36020 ft 535 kts 102°
2026-04-25 16:09 29.34397 -64.08914 36024 ft 537 kts 102°
2026-04-25 16:09 29.33810 -64.00384 36025 ft 534 kts 102°
2026-04-25 16:10 29.33219 -63.91895 36024 ft 535 kts 102°
2026-04-25 16:10 29.32622 -63.83417 36026 ft 538 kts 102°
2026-04-25 16:11 29.32019 -63.74893 36027 ft 535 kts 102°
2026-04-25 16:11 29.31406 -63.66343 36032 ft 538 kts 102°
2026-04-25 16:12 29.30799 -63.57896 36032 ft 532 kts 102°
2026-04-25 16:12 29.30178 -63.49415 36034 ft 539 kts 102°
2026-04-25 16:13 29.29551 -63.40881 36035 ft 539 kts 102°
2026-04-25 16:13 29.28920 -63.32325 36017 ft 533 kts 102°
2026-04-25 16:14 29.28281 -63.23819 36024 ft 540 kts 103°
2026-04-25 16:14 29.27643 -63.15317 36021 ft 533 kts 103°
2026-04-25 16:15 29.26993 -63.06815 36025 ft 540 kts 103°
2026-04-25 16:15 29.26337 -62.98256 36027 ft 540 kts 103°
2026-04-25 16:16 29.25688 -62.89825 36026 ft 532 kts 103°
2026-04-25 16:16 29.25021 -62.81307 36027 ft 540 kts 103°
2026-04-25 16:17 29.24353 -62.72803 36031 ft 537 kts 103°
2026-04-25 16:17 29.23679 -62.64301 36026 ft 539 kts 102°
2026-04-25 16:18 29.22997 -62.55765 36031 ft 539 kts 103°
2026-04-25 16:18 29.22311 -62.47238 36027 ft 539 kts 103°
2026-04-25 16:19 29.21618 -62.38703 36029 ft 536 kts 103°
2026-04-25 16:19 29.20926 -62.30252 36016 ft 539 kts 103°
2026-04-25 16:20 29.20051 -62.19659 36014 ft 538 kts 102°
2026-04-25 16:21 29.19121 -62.08502 36019 ft 539 kts 102°
2026-04-25 16:21 29.18402 -61.99971 36028 ft 542 kts 103°
2026-04-25 16:22 29.17673 -61.91370 36432 ft 543 kts 103°
2026-04-25 16:22 29.17308 -61.87059 37098 ft 537 kts 103°
2026-04-25 16:22 29.16948 -61.82834 37571 ft 533 kts 103°
2026-04-25 16:22 29.16588 -61.78632 37963 ft 530 kts 103°
2026-04-25 16:23 29.16229 -61.74479 38022 ft 531 kts 103°
2026-04-25 16:23 29.15494 -61.66032 38025 ft 535 kts 103°
2026-04-25 16:24 29.14751 -61.57545 38025 ft 537 kts 103°
2026-04-25 16:24 29.14003 -61.49049 38028 ft 538 kts 103°
2026-04-25 16:25 29.13248 -61.40526 38023 ft 539 kts 103°
2026-04-25 16:25 29.12498 -61.32104 38000 ft 535 kts 104°
2026-04-25 16:26 29.11737 -61.23647 38003 ft 537 kts 103°
2026-04-25 16:26 29.10968 -61.15166 37999 ft 539 kts 103°
2026-04-25 16:27 29.10194 -61.06683 38001 ft 538 kts 103°
2026-04-25 16:27 29.09417 -60.98202 38003 ft 535 kts 103°
2026-04-25 16:28 29.08639 -60.89798 38011 ft 538 kts 103°
2026-04-25 16:28 29.07842 -60.81256 38020 ft 541 kts 103°
2026-04-25 16:29 29.07047 -60.72768 38023 ft 540 kts 103°
2026-04-25 16:29 29.06247 -60.64294 38024 ft 539 kts 103°
2026-04-25 16:30 29.05440 -60.55806 38021 ft 540 kts 103°
2026-04-25 16:30 29.04620 -60.47241 38024 ft 542 kts 103°
2026-04-25 16:31 29.03801 -60.38721 38032 ft 538 kts 103°
2026-04-25 16:31 29.02978 -60.30248 38019 ft 540 kts 103°
2026-04-25 16:32 29.02148 -60.21744 38017 ft 541 kts 103°
2026-04-25 16:32 29.01310 -60.13233 38018 ft 542 kts 103°
2026-04-25 16:33 29.00466 -60.04699 38024 ft 545 kts 103°
2026-04-25 16:33 28.99735 -59.96070 38010 ft 548 kts 95°
2026-04-25 16:34 28.99906 -59.87367 38024 ft 551 kts 94°
2026-04-25 16:34 29.00090 -59.78641 38023 ft 553 kts 94°
2026-04-25 16:35 29.00227 -59.69844 38024 ft 555 kts 94°
2026-04-25 16:35 29.00334 -59.61084 38023 ft 552 kts 94°
2026-04-25 16:36 29.00421 -59.52364 38026 ft 555 kts 94°
2026-04-25 16:36 29.00472 -59.46518 38022 ft 553 kts 94°
2026-04-25 16:37 29.00539 -59.37768 38034 ft 552 kts 94°
2026-04-25 16:37 29.00596 -59.28986 38015 ft 554 kts 94°
2026-04-25 16:38 29.00648 -59.20236 38022 ft 550 kts 95°
2026-04-25 16:38 29.00691 -59.11490 38020 ft 552 kts 94°
2026-04-25 16:39 29.00728 -59.02700 38009 ft 554 kts 94°
2026-04-25 16:39 29.00760 -58.93967 38008 ft 554 kts 94°
2026-04-25 16:40 29.00787 -58.85204 38016 ft 551 kts 94°
2026-04-25 16:40 29.00806 -58.76437 38026 ft 555 kts 94°
2026-04-25 16:41 29.00820 -58.67598 38021 ft 556 kts 94°
2026-04-25 16:41 29.00832 -58.54369 38011 ft 556 kts 94°
2026-04-25 16:42 29.00832 -58.45551 38014 ft 555 kts 94°
2026-04-25 16:42 29.00826 -58.36710 38018 ft 555 kts 94°
2026-04-25 16:43 29.00815 -58.27988 38004 ft 553 kts 95°
2026-04-25 16:43 29.00798 -58.19201 37998 ft 553 kts 95°
2026-04-25 16:44 29.00775 -58.10478 38002 ft 554 kts 94°
2026-04-25 16:44 29.00746 -58.01703 37999 ft 554 kts 94°
2026-04-25 16:45 29.00712 -57.92919 38011 ft 553 kts 94°
2026-04-25 16:45 29.00671 -57.84109 38007 ft 557 kts 94°
2026-04-25 16:46 29.00625 -57.75216 38005 ft 555 kts 94°
2026-04-25 16:46 29.00592 -57.69356 38008 ft 556 kts 95°
2026-04-25 16:47 29.00516 -57.57640 38020 ft 560 kts 94°
2026-04-25 16:47 29.00453 -57.48772 38010 ft 557 kts 94°
2026-04-25 16:48 29.00384 -57.39945 38020 ft 561 kts 94°
2026-04-25 16:48 29.00307 -57.30969 37987 ft 562 kts 94°
2026-04-25 16:49 29.00227 -57.22083 38000 ft 562 kts 94°
2026-04-25 16:49 29.00140 -57.13180 37987 ft 559 kts 94°
2026-04-25 16:50 29.00047 -57.04329 38016 ft 562 kts 94°
2026-04-25 16:50 29.00040 -56.95393 38012 ft 562 kts 91°
2026-04-25 16:51 29.00292 -56.86480 38017 ft 563 kts 91°
2026-04-25 16:51 29.00457 -56.80456 38022 ft 565 kts 91°
2026-04-25 16:52 29.00762 -56.68530 38021 ft 563 kts 90°
2026-04-25 16:52 29.00977 -56.59609 38020 ft 565 kts 91°
2026-04-25 16:53 29.01285 -56.46112 38023 ft 565 kts 91°
2026-04-25 16:54 29.01480 -56.37192 38025 ft 568 kts 91°
2026-04-25 16:54 29.01669 -56.28220 37994 ft 565 kts 92°
2026-04-25 16:55 29.01851 -56.19255 37985 ft 566 kts 91°
2026-04-25 16:55 29.02028 -56.10260 37990 ft 569 kts 91°
2026-04-25 16:56 29.02199 -56.01284 37994 ft 567 kts 91°
2026-04-25 16:56 29.02364 -55.92248 37998 ft 569 kts 92°
2026-04-25 16:57 29.02523 -55.83242 38003 ft 566 kts 92°
2026-04-25 16:57 29.02676 -55.74222 37992 ft 567 kts 92°
2026-04-25 16:58 29.02822 -55.65209 38011 ft 566 kts 91°
2026-04-25 16:58 29.02962 -55.56239 38020 ft 567 kts 92°
2026-04-25 16:59 29.03096 -55.47248 38020 ft 567 kts 91°
2026-04-25 16:59 29.03225 -55.38259 38020 ft 567 kts 91°
2026-04-25 17:00 29.03347 -55.29248 37998 ft 569 kts 91°
2026-04-25 17:00 29.03464 -55.20290 37972 ft 566 kts 91°
2026-04-25 17:01 29.03553 -55.13042 38008 ft 567 kts 91°
2026-04-25 17:01 29.03658 -55.04073 38003 ft 569 kts 91°
2026-04-25 17:02 29.03758 -54.95045 37993 ft 568 kts 92°
2026-04-25 17:02 29.03852 -54.86086 37987 ft 568 kts 91°
2026-04-25 17:03 29.03940 -54.77070 38024 ft 567 kts 92°
2026-04-25 17:03 29.04021 -54.68086 38005 ft 570 kts 91°
2026-04-25 17:04 29.04098 -54.58982 38019 ft 570 kts 92°
2026-04-25 17:04 29.04167 -54.50011 38006 ft 569 kts 91°
2026-04-25 17:05 29.04231 -54.40919 38008 ft 571 kts 91°
2026-04-25 17:05 29.04316 -54.27398 38002 ft 570 kts 92°
2026-04-25 17:06 29.04365 -54.18354 37999 ft 569 kts 91°
2026-04-25 17:06 29.04407 -54.09345 38002 ft 571 kts 92°
2026-04-25 17:07 29.04444 -54.00307 37999 ft 571 kts 92°
2026-04-25 17:07 29.04475 -53.91286 38005 ft 570 kts 92°
2026-04-25 17:08 29.04499 -53.82227 38003 ft 571 kts 92°
2026-04-25 17:08 29.04518 -53.73175 37997 ft 572 kts 92°
2026-04-25 17:09 29.04530 -53.64120 38006 ft 570 kts 91°
2026-04-25 17:09 29.04537 -53.55098 38019 ft 572 kts 92°
2026-04-25 17:10 29.04537 -53.45998 38008 ft 573 kts 91°
2026-04-25 17:10 29.04531 -53.36937 38023 ft 573 kts 92°
2026-04-25 17:11 29.04520 -53.27854 37991 ft 570 kts 92°
2026-04-25 17:11 29.04501 -53.18823 38009 ft 573 kts 92°
2026-04-25 17:12 29.04478 -53.09793 37988 ft 571 kts 92°
2026-04-25 17:12 29.04448 -53.00701 37974 ft 573 kts 92°
2026-04-25 17:13 29.04424 -52.94648 37982 ft 573 kts 92°
2026-04-25 17:13 29.04369 -52.82554 37977 ft 572 kts 92°
2026-04-25 17:14 29.04321 -52.73474 37987 ft 575 kts 92°
2026-04-25 17:14 29.04266 -52.64372 37987 ft 573 kts 92°
2026-04-25 17:15 29.04205 -52.55234 37986 ft 576 kts 92°
2026-04-25 17:15 29.04138 -52.46173 37994 ft 573 kts 92°
2026-04-25 17:16 29.04065 -52.37074 37993 ft 576 kts 92°
2026-04-25 17:16 29.03986 -52.27964 37982 ft 574 kts 92°
2026-04-25 17:17 29.03900 -52.18858 37972 ft 575 kts 92°
2026-04-25 17:17 29.03809 -52.09772 37983 ft 576 kts 92°
2026-04-25 17:18 29.03711 -52.00576 37976 ft 575 kts 93°
2026-04-25 17:18 29.03606 -51.91458 37979 ft 578 kts 92°
2026-04-25 17:19 29.03496 -51.82344 37985 ft 576 kts 92°
2026-04-25 17:19 29.03380 -51.73194 37989 ft 578 kts 92°
2026-04-25 17:20 29.03256 -51.64015 37989 ft 577 kts 92°
2026-04-25 17:20 29.03127 -51.54825 37993 ft 579 kts 92°
2026-04-25 17:21 29.02991 -51.45678 37991 ft 578 kts 92°
2026-04-25 17:21 29.02850 -51.36561 38002 ft 578 kts 92°
2026-04-25 17:22 29.02752 -51.30419 37970 ft 578 kts 93°
2026-04-25 17:22 29.02548 -51.18202 37974 ft 580 kts 93°
2026-04-25 17:23 29.02387 -51.09013 37975 ft 580 kts 92°
2026-04-25 17:23 29.02219 -50.99799 37989 ft 582 kts 93°
2026-04-25 17:24 29.02046 -50.90628 37987 ft 582 kts 93°
2026-04-25 17:24 29.01865 -50.81406 37982 ft 581 kts 93°
2026-04-25 17:25 29.01678 -50.72182 37984 ft 583 kts 92°
2026-04-25 17:25 29.01486 -50.62995 37988 ft 584 kts 93°
2026-04-25 17:26 29.01287 -50.53756 37997 ft 583 kts 93°
2026-04-25 17:26 29.01080 -50.44485 38000 ft 583 kts 93°
2026-04-25 17:27 29.00868 -50.35261 38009 ft 584 kts 92°
2026-04-25 17:27 29.00723 -50.29107 37971 ft 585 kts 94°
2026-04-25 17:28 29.00424 -50.16751 37980 ft 585 kts 93°
2026-04-25 17:28 29.00192 -50.07483 37981 ft 585 kts 93°
2026-04-25 17:29 28.99962 -49.98260 37986 ft 585 kts 92°
2026-04-25 17:29 29.00116 -49.88963 37997 ft 586 kts 89°
2026-04-25 17:30 29.00312 -49.79684 37999 ft 584 kts 89°
2026-04-25 17:30 29.00487 -49.70419 38003 ft 585 kts 89°
2026-04-25 17:31 29.00646 -49.61185 38003 ft 585 kts 89°
2026-04-25 17:31 29.00796 -49.51873 38009 ft 585 kts 90°
2026-04-25 17:32 29.00934 -49.42639 38008 ft 584 kts 89°
2026-04-25 17:32 29.01065 -49.33403 37994 ft 585 kts 90°
2026-04-25 17:33 29.01189 -49.24150 37969 ft 583 kts 90°
2026-04-25 17:33 29.01307 -49.14870 37974 ft 584 kts 90°
2026-04-25 17:34 29.01416 -49.05624 37985 ft 584 kts 89°
2026-04-25 17:34 29.01520 -48.96395 37997 ft 583 kts 90°
2026-04-25 17:35 29.01617 -48.87120 38003 ft 583 kts 89°
2026-04-25 17:35 29.01708 -48.77944 38017 ft 583 kts 90°
2026-04-25 17:36 29.01792 -48.68670 38028 ft 581 kts 89°
2026-04-25 17:36 29.01871 -48.59448 38021 ft 584 kts 90°
2026-04-25 17:37 29.01942 -48.50204 38024 ft 580 kts 89°
2026-04-25 17:37 29.02007 -48.41036 38027 ft 581 kts 89°
2026-04-25 17:38 29.02047 -48.34888 38041 ft 581 kts 89°
2026-04-25 17:38 29.02118 -48.22637 38013 ft 580 kts 89°
2026-04-25 17:39 29.02156 -48.15346 38023 ft 581 kts 90°
2026-04-25 17:39 29.02189 -48.08192 38015 ft 580 kts 90°
2026-04-25 17:40 29.02225 -47.98985 38027 ft 580 kts 90°
2026-04-25 17:40 29.02256 -47.89661 38033 ft 581 kts 90°
2026-04-25 17:41 29.02279 -47.80481 38036 ft 579 kts 90°
2026-04-25 17:41 29.02297 -47.71292 38046 ft 579 kts 89°
2026-04-25 17:42 29.02308 -47.62142 38048 ft 579 kts 89°
2026-04-25 17:42 29.02314 -47.52924 38050 ft 580 kts 90°
2026-04-25 17:43 29.02312 -47.43707 38061 ft 578 kts 89°
2026-04-25 17:43 29.02305 -47.34561 38048 ft 579 kts 90°
2026-04-25 17:44 29.02293 -47.26167 38031 ft 577 kts 90°
2026-04-25 17:44 29.02273 -47.16984 38031 ft 577 kts 90°
2026-04-25 17:45 29.02257 -47.10930 38040 ft 578 kts 90°
2026-04-25 17:45 29.02217 -46.98739 38053 ft 577 kts 90°
2026-04-25 17:46 29.02179 -46.89588 38058 ft 577 kts 90°
2026-04-25 17:46 29.02135 -46.80474 38054 ft 578 kts 90°
2026-04-25 17:47 29.02085 -46.71318 38053 ft 577 kts 90°
2026-04-25 17:47 29.02028 -46.62211 38065 ft 576 kts 89°
2026-04-25 17:48 29.01932 -46.48466 38061 ft 578 kts 90°
2026-04-25 17:49 29.01860 -46.39311 38072 ft 577 kts 89°
2026-04-25 17:49 29.01782 -46.30179 38050 ft 576 kts 90°
2026-04-25 17:50 29.01699 -46.21084 38040 ft 577 kts 90°
2026-04-25 17:50 29.01608 -46.11933 38051 ft 576 kts 90°
2026-04-25 17:51 29.01511 -46.02772 38050 ft 575 kts 90°
2026-04-25 17:51 29.01409 -45.93681 38048 ft 577 kts 90°
2026-04-25 17:52 29.01300 -45.84515 38057 ft 575 kts 90°
2026-04-25 17:52 29.01186 -45.75440 38054 ft 576 kts 90°
2026-04-25 17:53 29.01064 -45.66286 38062 ft 575 kts 90°
2026-04-25 17:53 29.00937 -45.57183 38071 ft 574 kts 90°
2026-04-25 17:54 29.00805 -45.48129 38076 ft 574 kts 90°
2026-04-25 17:54 29.00666 -45.39037 38084 ft 573 kts 90°
2026-04-25 17:55 29.00521 -45.29990 38056 ft 568 kts 90°
2026-04-25 17:55 29.00373 -45.21075 38059 ft 561 kts 90°
2026-04-25 17:56 29.00219 -45.12151 38053 ft 563 kts 90°
2026-04-25 17:56 28.99910 -45.03277 38059 ft 563 kts 98°
2026-04-25 17:57 28.98062 -44.94629 38084 ft 561 kts 111°
2026-04-25 17:57 28.95477 -44.86237 38073 ft 560 kts 112°
2026-04-25 17:58 28.92862 -44.77930 38080 ft 562 kts 112°
2026-04-25 17:58 28.90204 -44.69572 38076 ft 559 kts 112°
2026-04-25 17:59 28.87524 -44.61209 38076 ft 562 kts 113°
2026-04-25 17:59 28.84854 -44.52918 38075 ft 561 kts 113°
2026-04-25 18:00 28.82142 -44.44534 38093 ft 562 kts 113°
2026-04-25 18:00 28.79431 -44.36178 38079 ft 561 kts 112°
2026-04-25 18:01 28.76712 -44.27821 38063 ft 562 kts 114°
2026-04-25 18:01 28.73989 -44.19475 38071 ft 563 kts 113°
2026-04-25 18:02 28.71260 -44.11132 38067 ft 563 kts 113°
2026-04-25 18:02 28.68523 -44.02782 38068 ft 561 kts 113°
2026-04-25 18:03 28.65782 -43.94444 38083 ft 561 kts 113°
2026-04-25 18:03 28.63048 -43.86150 38086 ft 562 kts 114°
2026-04-25 18:04 28.60309 -43.77857 38085 ft 563 kts 113°
2026-04-25 18:04 28.57560 -43.69552 38100 ft 562 kts 113°
2026-04-25 18:05 28.54798 -43.61233 38098 ft 564 kts 112°
2026-04-25 18:05 28.52033 -43.52919 38095 ft 563 kts 112°
2026-04-25 18:06 28.49263 -43.44613 38111 ft 563 kts 113°
2026-04-25 18:06 28.46486 -43.36302 38113 ft 564 kts 112°
2026-04-25 18:07 28.43710 -43.28017 38077 ft 564 kts 113°
2026-04-25 18:07 28.40915 -43.19693 38068 ft 563 kts 113°
2026-04-25 18:08 28.38130 -43.11418 38075 ft 564 kts 113°
2026-04-25 18:08 28.35317 -43.03079 38078 ft 564 kts 113°
2026-04-25 18:09 28.32497 -42.94741 38070 ft 565 kts 113°
2026-04-25 18:09 28.29641 -42.86315 38070 ft 565 kts 113°
2026-04-25 18:10 28.26819 -42.78008 38077 ft 565 kts 112°
2026-04-25 18:10 28.23984 -42.69682 38081 ft 565 kts 113°
2026-04-25 18:11 28.21153 -42.61386 38078 ft 565 kts 113°
2026-04-25 18:11 28.18301 -42.53051 38094 ft 566 kts 112°
2026-04-25 18:12 28.15449 -42.44731 38095 ft 566 kts 112°
2026-04-25 18:12 28.12619 -42.36494 38097 ft 566 kts 113°
2026-04-25 18:13 28.09754 -42.28177 38069 ft 567 kts 113°
2026-04-25 18:13 28.06866 -42.19811 38079 ft 567 kts 114°
2026-04-25 18:14 28.02549 -42.07344 38086 ft 568 kts 113°
2026-04-25 18:14 27.99478 -41.99092 38093 ft 566 kts 121°
2026-04-25 18:15 27.95709 -41.91260 38101 ft 566 kts 122°
2026-04-25 18:15 27.91908 -41.83483 38097 ft 564 kts 122°
2026-04-25 18:16 27.89074 -41.77699 38097 ft 565 kts 122°
2026-04-25 18:17 27.83367 -41.66082 38092 ft 563 kts 122°
2026-04-25 18:17 27.79540 -41.58312 38101 ft 565 kts 122°
2026-04-25 18:18 27.75734 -41.50602 38097 ft 567 kts 122°
2026-04-25 18:18 27.71904 -41.42855 38101 ft 567 kts 122°
2026-04-25 18:19 27.68082 -41.35140 38104 ft 564 kts 122°
2026-04-25 18:19 27.64260 -41.27438 38078 ft 564 kts 122°
2026-04-25 18:20 27.60431 -41.19738 38084 ft 566 kts 122°
2026-04-25 18:20 27.56583 -41.12014 38088 ft 565 kts 122°
2026-04-25 18:21 27.52743 -41.04318 38087 ft 565 kts 122°
2026-04-25 18:21 27.48894 -40.96621 38091 ft 567 kts 122°
2026-04-25 18:22 27.45044 -40.88932 38087 ft 564 kts 123°
2026-04-25 18:22 27.41183 -40.81236 38103 ft 565 kts 122°
2026-04-25 18:23 27.37328 -40.73569 38092 ft 566 kts 122°
2026-04-25 18:23 27.33460 -40.65887 38099 ft 566 kts 122°
2026-04-25 18:24 27.29597 -40.58228 38101 ft 564 kts 122°
2026-04-25 18:24 27.25730 -40.50576 38099 ft 564 kts 122°
2026-04-25 18:25 27.21838 -40.42888 38112 ft 565 kts 122°
2026-04-25 18:25 27.17973 -40.35267 38105 ft 566 kts 122°
2026-04-25 18:26 27.14074 -40.27590 38085 ft 564 kts 123°
2026-04-25 18:26 27.10196 -40.19972 38095 ft 565 kts 122°
2026-04-25 18:27 27.06290 -40.12309 38091 ft 564 kts 123°
2026-04-25 18:27 27.02409 -40.04710 38085 ft 564 kts 123°
2026-04-25 18:28 26.98532 -39.97026 38094 ft 567 kts 120°
2026-04-25 18:28 26.94909 -39.89240 38098 ft 566 kts 120°
2026-04-25 18:29 26.89420 -39.77466 38096 ft 567 kts 120°
2026-04-25 18:30 26.82086 -39.61840 38096 ft 569 kts 119°
2026-04-25 18:30 26.78416 -39.54051 38100 ft 566 kts 120°
2026-04-25 18:31 26.74727 -39.46244 38101 ft 567 kts 120°
2026-04-25 18:31 26.71022 -39.38415 38098 ft 569 kts 119°
2026-04-25 18:32 26.67320 -39.30607 38079 ft 566 kts 120°
2026-04-25 18:32 26.63632 -39.22845 38081 ft 567 kts 120°
2026-04-25 18:33 26.59936 -39.15081 38084 ft 568 kts 120°
2026-04-25 18:33 26.56209 -39.07264 38085 ft 568 kts 120°
2026-04-25 18:34 26.52491 -38.99482 38093 ft 568 kts 120°
2026-04-25 18:34 26.48770 -38.91707 38092 ft 569 kts 120°
2026-04-25 18:35 26.45050 -38.83947 38095 ft 567 kts 120°
2026-04-25 18:35 26.41325 -38.76191 38097 ft 569 kts 120°
2026-04-25 18:36 26.37572 -38.68389 38097 ft 568 kts 120°
2026-04-25 18:36 26.34726 -38.62484 38103 ft 568 kts 120°
2026-04-25 18:37 26.30976 -38.54713 38104 ft 568 kts 120°
2026-04-25 18:37 26.27231 -38.46968 38099 ft 569 kts 120°
2026-04-25 18:38 26.23471 -38.39204 38103 ft 570 kts 120°
2026-04-25 18:38 26.19731 -38.31496 38081 ft 570 kts 121°
2026-04-25 18:39 26.15978 -38.23772 38090 ft 568 kts 120°
2026-04-25 18:39 26.12199 -38.16011 38084 ft 569 kts 120°
2026-04-25 18:40 26.08433 -38.08290 38084 ft 571 kts 120°
2026-04-25 18:40 26.04668 -38.00583 38076 ft 570 kts 120°
2026-04-25 18:41 26.00898 -37.92880 38078 ft 569 kts 120°
2026-04-25 18:41 25.97097 -37.85127 38080 ft 569 kts 120°
2026-04-25 18:42 25.94583 -37.80006 38085 ft 571 kts 120°
2026-04-25 18:42 25.89511 -37.69693 38088 ft 572 kts 120°
2026-04-25 18:43 25.85714 -37.61989 38086 ft 570 kts 120°
2026-04-25 18:43 25.81918 -37.54299 38090 ft 572 kts 120°
2026-04-25 18:44 25.78089 -37.46555 38090 ft 571 kts 120°
2026-04-25 18:44 25.74293 -37.38890 38098 ft 569 kts 120°
2026-04-25 18:45 25.70934 -37.32120 38071 ft 570 kts 120°
2026-04-25 18:45 25.67107 -37.24418 38074 ft 570 kts 120°
2026-04-25 18:46 25.63270 -37.16710 38081 ft 569 kts 120°
2026-04-25 18:46 25.59455 -37.09058 38080 ft 570 kts 120°
2026-04-25 18:47 25.55635 -37.01410 38088 ft 569 kts 120°
2026-04-25 18:47 25.51790 -36.93724 38095 ft 569 kts 120°
2026-04-25 18:48 25.47977 -36.86115 38099 ft 571 kts 120°
2026-04-25 18:48 25.44134 -36.78459 38103 ft 570 kts 120°
2026-04-25 18:49 25.40273 -36.70780 38104 ft 570 kts 120°
2026-04-25 18:49 25.36431 -36.63150 38107 ft 570 kts 120°
2026-04-25 18:50 25.32567 -36.55491 38106 ft 570 kts 120°
2026-04-25 18:50 25.28734 -36.47907 38113 ft 570 kts 120°
2026-04-25 18:51 25.26157 -36.42813 38122 ft 571 kts 120°
2026-04-25 18:51 25.20998 -36.32635 38095 ft 571 kts 120°
2026-04-25 18:52 25.17130 -36.25017 38094 ft 571 kts 120°
2026-04-25 18:52 25.13260 -36.17410 38102 ft 571 kts 120°
2026-04-25 18:53 25.09345 -36.09726 38112 ft 571 kts 121°
2026-04-25 18:53 25.05452 -36.02097 38104 ft 571 kts 121°
2026-04-25 18:54 24.99802 -35.91047 38099 ft 570 kts 120°
2026-04-25 18:55 24.96674 -35.84942 38094 ft 570 kts 121°
2026-04-25 18:55 24.93665 -35.79075 38108 ft 569 kts 120°
2026-04-25 18:56 24.89768 -35.71489 38107 ft 571 kts 121°
2026-04-25 18:56 24.85873 -35.63918 38105 ft 569 kts 120°
2026-04-25 18:57 24.81928 -35.56264 38111 ft 570 kts 120°
2026-04-25 18:57 24.78087 -35.48822 38114 ft 570 kts 120°
2026-04-25 18:58 24.74185 -35.41273 38113 ft 569 kts 120°
2026-04-25 18:58 24.68300 -35.29913 38095 ft 571 kts 121°
2026-04-25 18:59 24.60467 -35.14833 38091 ft 568 kts 121°
2026-04-25 19:00 24.54532 -35.03441 38089 ft 569 kts 121°
2026-04-25 19:01 24.49598 -34.93990 38093 ft 569 kts 121°
2026-04-25 19:01 24.46326 -34.87733 38093 ft 569 kts 120°
2026-04-25 19:02 24.40372 -34.76366 38099 ft 569 kts 121°
2026-04-25 19:03 24.36762 -34.69488 38105 ft 570 kts 121°
2026-04-25 19:03 24.31971 -34.60376 38108 ft 568 kts 121°
2026-04-25 19:04 24.26145 -34.49318 38114 ft 569 kts 121°
2026-04-25 19:05 24.18283 -34.34435 38122 ft 570 kts 121°
2026-04-25 19:06 24.14387 -34.27076 38097 ft 568 kts 122°
2026-04-25 19:06 24.08461 -34.15906 38090 ft 569 kts 122°
2026-04-25 19:07 24.03345 -34.06283 38094 ft 570 kts 122°
2026-04-25 19:08 23.97264 -33.95103 38099 ft 569 kts 124°
2026-04-25 19:09 23.90256 -33.82946 38104 ft 570 kts 123°
2026-04-25 19:10 23.82571 -33.69608 38102 ft 569 kts 124°
2026-04-25 19:10 23.78347 -33.62281 38107 ft 568 kts 123°
2026-04-25 19:11 23.74139 -33.54991 38114 ft 570 kts 123°
2026-04-25 19:11 23.70096 -33.47995 38116 ft 568 kts 123°
2026-04-25 19:12 23.65682 -33.40366 38121 ft 567 kts 123°
2026-04-25 19:12 23.62404 -33.34708 38122 ft 569 kts 124°
2026-04-25 19:13 23.58177 -33.27420 38102 ft 569 kts 124°
2026-04-25 19:13 23.53967 -33.20173 38106 ft 567 kts 124°
2026-04-25 19:14 23.49744 -33.12914 38107 ft 568 kts 123°
2026-04-25 19:14 23.45527 -33.05674 38109 ft 567 kts 124°
2026-04-25 19:15 23.41308 -32.98441 38112 ft 566 kts 124°
2026-04-25 19:15 23.37079 -32.91203 38113 ft 565 kts 124°
2026-04-25 19:16 23.32879 -32.84024 38113 ft 566 kts 124°
2026-04-25 19:16 23.28662 -32.76825 38117 ft 566 kts 124°
2026-04-25 19:17 23.24454 -32.69655 38121 ft 567 kts 123°
2026-04-25 19:17 23.20172 -32.62365 38123 ft 565 kts 124°
2026-04-25 19:18 23.16335 -32.55843 38124 ft 563 kts 124°
2026-04-25 19:18 23.12119 -32.48686 38127 ft 564 kts 124°
2026-04-25 19:19 23.08955 -32.43321 38129 ft 565 kts 124°
2026-04-25 19:19 23.04729 -32.36165 38131 ft 564 kts 124°
2026-04-25 19:20 23.01543 -32.30776 38108 ft 562 kts 125°
2026-04-25 19:20 22.97320 -32.23642 38108 ft 564 kts 124°
2026-04-25 19:21 22.93798 -32.17700 38108 ft 561 kts 124°
2026-04-25 19:21 22.87447 -32.07003 38098 ft 563 kts 124°
2026-04-25 19:22 22.83231 -31.99913 38095 ft 564 kts 124°
2026-04-25 19:23 22.76852 -31.89204 38100 ft 563 kts 124°
2026-04-25 19:23 22.70507 -31.78575 38096 ft 561 kts 124°
2026-04-25 19:24 22.66284 -31.71511 38091 ft 561 kts 124°
2026-04-25 19:25 22.57788 -31.57332 38100 ft 561 kts 124°
2026-04-25 19:25 22.53551 -31.50274 38099 ft 560 kts 125°
2026-04-25 19:26 22.49318 -31.43232 38101 ft 559 kts 125°
2026-04-25 19:26 22.45060 -31.36160 38103 ft 560 kts 125°
2026-04-25 19:27 22.42245 -31.31488 38081 ft 559 kts 125°
2026-04-25 19:27 22.36597 -31.22129 38085 ft 559 kts 125°
2026-04-25 19:28 22.32340 -31.15084 38087 ft 559 kts 125°
2026-04-25 19:28 22.28094 -31.08068 38093 ft 560 kts 125°
2026-04-25 19:29 22.23854 -31.01072 38091 ft 558 kts 125°
2026-04-25 19:29 22.19598 -30.94057 38090 ft 560 kts 125°
2026-04-25 19:30 22.15350 -30.87066 38097 ft 558 kts 126°
2026-04-25 19:30 22.11095 -30.80071 38098 ft 558 kts 125°
2026-04-25 19:31 22.06848 -30.73099 38103 ft 558 kts 126°
2026-04-25 19:31 22.02949 -30.66705 38099 ft 557 kts 126°
2026-04-25 19:32 21.98675 -30.59708 38103 ft 557 kts 125°
2026-04-25 19:32 21.96258 -30.55753 38104 ft 556 kts 126°
2026-04-25 19:33 21.91215 -30.47512 38106 ft 557 kts 126°
2026-04-25 19:33 21.87736 -30.41835 38098 ft 556 kts 125°
2026-04-25 19:34 21.83481 -30.34898 38091 ft 554 kts 126°
2026-04-25 19:34 21.80018 -30.29260 38075 ft 557 kts 126°
2026-04-25 19:35 21.75758 -30.22331 38070 ft 555 kts 126°
2026-04-25 19:35 21.71521 -30.15450 38074 ft 555 kts 126°
2026-04-25 19:36 21.67275 -30.08562 38076 ft 555 kts 126°
2026-04-25 19:36 21.63021 -30.01670 38074 ft 554 kts 126°
2026-04-25 19:37 21.58778 -29.94804 38072 ft 553 kts 126°
2026-04-25 19:37 21.54505 -29.87898 38073 ft 554 kts 126°
2026-04-25 19:38 21.50267 -29.81057 38080 ft 551 kts 126°
2026-04-25 19:38 21.45894 -29.74277 38079 ft 551 kts 128°
2026-04-25 19:39 21.41448 -29.67571 38079 ft 550 kts 128°
2026-04-25 19:39 21.37029 -29.60905 38076 ft 551 kts 128°
2026-04-25 19:40 21.33337 -29.55332 38080 ft 550 kts 128°
2026-04-25 19:40 21.28179 -29.47550 38080 ft 550 kts 127°
2026-04-25 19:41 21.24488 -29.41985 38082 ft 550 kts 127°
2026-04-25 19:41 21.20787 -29.36409 38085 ft 548 kts 128°
2026-04-25 19:42 21.15841 -29.28967 38064 ft 549 kts 128°
2026-04-25 19:42 21.11405 -29.22299 38067 ft 548 kts 128°
2026-04-25 19:43 21.07711 -29.16752 38068 ft 551 kts 128°
2026-04-25 19:43 21.03280 -29.10105 38070 ft 549 kts 128°
2026-04-25 19:44 20.98518 -29.02971 38072 ft 549 kts 128°
2026-04-25 19:44 20.94829 -28.97449 38071 ft 549 kts 128°
2026-04-25 19:45 20.89663 -28.89727 38071 ft 549 kts 128°
2026-04-25 19:45 20.85234 -28.83115 38064 ft 547 kts 128°
2026-04-25 19:46 20.81545 -28.77613 38064 ft 548 kts 128°
2026-04-25 19:46 20.76379 -28.69917 38063 ft 546 kts 128°
2026-04-25 19:47 20.71963 -28.63347 38060 ft 546 kts 128°
2026-04-25 19:47 20.67532 -28.56762 38064 ft 544 kts 128°
2026-04-25 19:48 20.65211 -28.53317 38062 ft 545 kts 128°
2026-04-25 19:48 20.60772 -28.46730 38058 ft 543 kts 128°
2026-04-25 19:49 20.57827 -28.42366 38059 ft 544 kts 128°
2026-04-25 19:49 20.51926 -28.33630 38045 ft 543 kts 129°
2026-04-25 19:50 20.46062 -28.24961 38037 ft 541 kts 129°
2026-04-25 19:51 20.40907 -28.17354 38036 ft 542 kts 129°
2026-04-25 19:51 20.37245 -28.11953 38037 ft 541 kts 129°
2026-04-25 19:52 20.32836 -28.05460 38039 ft 543 kts 129°
2026-04-25 19:52 20.28414 -27.98953 38037 ft 541 kts 128°
2026-04-25 19:53 20.24023 -27.92501 38041 ft 541 kts 128°
2026-04-25 19:53 20.19608 -27.86018 38037 ft 540 kts 129°
2026-04-25 19:54 20.14478 -27.78497 38037 ft 541 kts 129°
2026-04-25 19:54 20.10809 -27.73123 38042 ft 540 kts 128°
2026-04-25 19:55 20.05654 -27.65582 38041 ft 541 kts 128°
2026-04-25 19:55 20.01985 -27.60219 38043 ft 539 kts 128°
2026-04-25 19:56 19.96855 -27.52729 38040 ft 537 kts 128°
2026-04-25 19:56 19.93167 -27.47352 38042 ft 539 kts 129°
2026-04-25 19:57 19.88768 -27.40943 38038 ft 537 kts 129°
2026-04-25 19:57 19.84393 -27.34576 38036 ft 537 kts 129°
2026-04-25 19:58 19.79251 -27.27101 38021 ft 536 kts 129°
2026-04-25 19:58 19.75601 -27.21801 38022 ft 536 kts 129°
2026-04-25 19:59 19.71192 -27.15406 38024 ft 535 kts 129°
2026-04-25 19:59 19.66819 -27.09068 38025 ft 535 kts 129°
2026-04-25 20:00 19.61705 -27.01666 38027 ft 533 kts 129°
2026-04-25 20:00 19.58062 -26.96399 38028 ft 535 kts 129°
2026-04-25 20:01 19.50746 -26.85834 38027 ft 533 kts 129°
2026-04-25 20:01 19.46347 -26.79490 38023 ft 533 kts 129°
2026-04-25 20:02 19.42717 -26.74260 38022 ft 532 kts 129°
2026-04-25 20:02 19.38338 -26.67958 38020 ft 530 kts 129°
2026-04-25 20:03 19.33252 -26.60646 38024 ft 531 kts 129°
2026-04-25 20:03 19.29598 -26.55398 38024 ft 530 kts 129°
2026-04-25 20:04 19.25224 -26.49122 38023 ft 530 kts 129°
2026-04-25 20:04 19.20858 -26.42865 38025 ft 529 kts 129°
2026-04-25 20:05 19.16509 -26.36637 38027 ft 529 kts 129°
2026-04-25 20:05 19.12153 -26.30406 38006 ft 527 kts 129°
2026-04-25 20:06 19.07774 -26.24148 38005 ft 528 kts 129°
2026-04-25 20:06 19.03429 -26.17944 38010 ft 528 kts 129°
2026-04-25 20:07 18.99045 -26.11692 38008 ft 528 kts 129°
2026-04-25 20:07 18.94699 -26.05500 38009 ft 527 kts 129°
2026-04-25 20:08 18.90373 -25.99256 38011 ft 526 kts 129°
2026-04-25 20:08 18.86070 -25.93040 38007 ft 525 kts 129°
2026-04-25 20:09 18.81773 -25.86840 38007 ft 524 kts 129°
2026-04-25 20:09 18.77451 -25.80612 38007 ft 525 kts 129°
2026-04-25 20:10 18.73160 -25.74436 38011 ft 524 kts 129°
2026-04-25 20:10 18.69250 -25.68814 38009 ft 524 kts 129°
2026-04-25 20:11 18.65438 -25.63339 38011 ft 522 kts 129°
2026-04-25 20:11 18.60421 -25.56141 38014 ft 522 kts 129°
2026-04-25 20:12 18.56843 -25.51011 38012 ft 522 kts 129°
2026-04-25 20:12 18.53270 -25.45893 38012 ft 522 kts 129°
2026-04-25 20:13 18.48262 -25.38727 38013 ft 522 kts 129°
2026-04-25 20:13 18.43953 -25.32566 37992 ft 520 kts 129°
2026-04-25 20:14 18.39667 -25.26445 37997 ft 519 kts 129°
2026-04-25 20:14 18.35383 -25.20334 37994 ft 520 kts 129°
2026-04-25 20:15 18.31121 -25.14258 37993 ft 519 kts 129°
2026-04-25 20:15 18.26820 -25.08134 37997 ft 519 kts 129°
2026-04-25 20:16 18.22545 -25.02052 37987 ft 519 kts 129°
2026-04-25 20:16 18.18255 -24.95955 37994 ft 519 kts 129°
2026-04-25 20:17 18.13966 -24.89864 37985 ft 517 kts 129°
2026-04-25 20:17 18.09692 -24.83800 37985 ft 517 kts 129°
2026-04-25 20:18 18.05401 -24.77717 37991 ft 515 kts 129°
2026-04-25 20:18 18.01134 -24.71677 37993 ft 516 kts 129°
2026-04-25 20:19 17.96837 -24.65598 37995 ft 518 kts 129°
2026-04-25 20:19 17.91844 -24.58539 37994 ft 516 kts 129°
2026-04-25 20:20 17.88252 -24.53468 37992 ft 517 kts 129°
2026-04-25 20:20 17.84700 -24.48456 37994 ft 517 kts 129°
2026-04-25 20:21 17.81277 -24.43630 37994 ft 517 kts 129°
2026-04-25 20:21 17.76987 -24.37586 37994 ft 517 kts 129°
2026-04-25 20:22 17.73419 -24.32564 37977 ft 516 kts 129°
2026-04-25 20:22 17.68394 -24.25538 37979 ft 516 kts 130°
2026-04-25 20:23 17.64075 -24.19540 37978 ft 515 kts 130°
2026-04-25 20:23 17.59749 -24.13536 37979 ft 517 kts 130°
2026-04-25 20:24 17.55415 -24.07525 37978 ft 517 kts 129°
2026-04-25 20:24 17.51086 -24.01526 37980 ft 518 kts 130°
2026-04-25 20:25 17.46741 -23.95510 37986 ft 518 kts 129°
2026-04-25 20:25 17.42421 -23.89531 37988 ft 516 kts 130°
2026-04-25 20:26 17.38082 -23.83534 37987 ft 515 kts 130°
2026-04-25 20:26 17.33774 -23.77584 37984 ft 516 kts 130°
2026-04-25 20:27 17.29420 -23.71576 37977 ft 516 kts 130°
2026-04-25 20:27 17.25090 -23.65607 37978 ft 516 kts 130°
2026-04-25 20:28 17.20756 -23.59636 37977 ft 515 kts 130°
2026-04-25 20:28 17.16434 -23.53687 37976 ft 515 kts 130°
2026-04-25 20:29 17.12077 -23.47696 37978 ft 514 kts 130°
2026-04-25 20:29 17.07693 -23.41672 37979 ft 513 kts 130°
2026-04-25 20:30 17.03364 -23.35731 37975 ft 513 kts 130°
2026-04-25 20:30 16.99030 -23.29785 37962 ft 513 kts 130°
2026-04-25 20:31 16.94709 -23.23865 37961 ft 512 kts 130°
2026-04-25 20:31 16.90392 -23.17954 37961 ft 512 kts 130°
2026-04-25 20:32 16.86077 -23.12050 37957 ft 511 kts 130°
2026-04-25 20:32 16.82321 -23.06917 37959 ft 512 kts 130°
2026-04-25 20:33 16.78021 -23.01043 37958 ft 511 kts 130°
2026-04-25 20:33 16.74527 -22.96028 37959 ft 512 kts 123°
2026-04-25 20:34 16.72444 -22.91583 37957 ft 516 kts 112°
2026-04-25 20:34 16.71188 -22.88048 37957 ft 518 kts 111°
2026-04-25 20:34 16.68759 -22.81040 37957 ft 517 kts 111°
2026-04-25 20:35 16.66315 -22.74003 37958 ft 516 kts 111°
2026-04-25 20:35 16.63869 -22.66981 37956 ft 510 kts 111°
2026-04-25 20:36 16.61487 -22.60152 37959 ft 495 kts 111°
2026-04-25 20:36 16.59121 -22.53387 37958 ft 499 kts 111°
2026-04-25 20:37 16.56749 -22.46610 37959 ft 498 kts 111°
2026-04-25 20:37 16.54383 -22.39861 37958 ft 499 kts 111°
2026-04-25 20:38 16.52004 -22.33083 37947 ft 498 kts 111°
2026-04-25 20:38 16.49623 -22.26306 37946 ft 499 kts 111°
2026-04-25 20:39 16.47716 -22.20883 37946 ft 498 kts 111°
2026-04-25 20:39 16.46294 -22.16844 37945 ft 498 kts 111°
2026-04-25 20:40 16.43511 -22.08947 37946 ft 498 kts 111°
2026-04-25 20:40 16.41127 -22.02190 37949 ft 498 kts 111°
2026-04-25 20:41 16.38744 -21.95446 37949 ft 500 kts 111°
2026-04-25 20:41 16.36351 -21.88678 37952 ft 499 kts 112°
2026-04-25 20:42 16.33955 -21.81909 37953 ft 497 kts 111°
2026-04-25 20:42 16.31537 -21.75089 37954 ft 499 kts 112°
2026-04-25 20:43 16.29124 -21.68288 37953 ft 498 kts 111°
2026-04-25 20:43 16.26730 -21.61588 37947 ft 497 kts 111°
2026-04-25 20:44 16.24302 -21.54825 37950 ft 498 kts 112°
2026-04-25 20:44 16.21887 -21.48104 37954 ft 496 kts 112°
2026-04-25 20:45 16.19471 -21.41390 37949 ft 497 kts 112°
2026-04-25 20:45 16.17046 -21.34655 37950 ft 496 kts 112°
2026-04-25 20:46 16.14621 -21.27925 37938 ft 497 kts 112°
2026-04-25 20:46 16.12197 -21.21208 37933 ft 496 kts 112°
2026-04-25 20:47 16.09780 -21.14516 37935 ft 495 kts 112°
2026-04-25 20:47 16.07361 -21.07830 37932 ft 495 kts 112°
2026-04-25 20:48 16.04944 -21.01153 37931 ft 498 kts 112°
2026-04-25 20:48 16.02515 -20.94453 37936 ft 498 kts 112°
2026-04-25 20:49 16.00082 -20.87745 37933 ft 497 kts 112°
2026-04-25 20:49 15.97651 -20.81052 37933 ft 496 kts 112°
2026-04-25 20:50 15.94985 -20.74431 37931 ft 493 kts 119°
2026-04-25 20:50 15.91287 -20.68514 37931 ft 489 kts 128°
2026-04-25 20:51 15.87351 -20.62743 37931 ft 489 kts 128°
2026-04-25 20:51 15.83411 -20.56966 37933 ft 489 kts 128°
2026-04-25 20:52 15.80150 -20.52193 37938 ft 489 kts 128°
2026-04-25 20:52 15.75557 -20.45498 37936 ft 489 kts 128°
2026-04-25 20:53 15.71610 -20.39757 37944 ft 489 kts 128°
2026-04-25 20:53 15.67669 -20.34034 37943 ft 488 kts 128°
2026-04-25 20:54 15.63728 -20.28295 37939 ft 488 kts 128°
2026-04-25 20:54 15.59782 -20.22570 37935 ft 487 kts 128°
2026-04-25 20:55 15.55829 -20.16874 37935 ft 488 kts 129°
2026-04-25 20:55 15.51772 -20.11252 37931 ft 487 kts 129°
2026-04-25 20:56 15.47710 -20.05637 37928 ft 486 kts 129°
2026-04-25 20:56 15.43650 -20.00030 37929 ft 486 kts 129°
2026-04-25 20:57 15.39585 -19.94422 37922 ft 486 kts 129°
2026-04-25 20:57 15.35522 -19.88818 37918 ft 486 kts 129°
2026-04-25 20:58 15.31477 -19.83244 37918 ft 486 kts 129°
2026-04-25 20:58 15.27432 -19.77675 37917 ft 485 kts 129°
2026-04-25 20:59 15.23386 -19.72107 37915 ft 486 kts 129°
2026-04-25 20:59 15.19312 -19.66506 37911 ft 485 kts 129°
2026-04-25 21:00 15.15915 -19.61838 37912 ft 487 kts 129°
2026-04-25 21:01 15.10893 -19.54943 37906 ft 487 kts 129°
2026-04-25 21:01 15.06816 -19.49350 37907 ft 486 kts 129°
2026-04-25 21:02 15.02751 -19.43778 37905 ft 487 kts 129°
2026-04-25 21:02 14.98703 -19.38232 37906 ft 485 kts 129°
2026-04-25 21:03 14.94625 -19.32649 37896 ft 486 kts 129°
2026-04-25 21:03 14.90546 -19.27069 37907 ft 487 kts 129°
2026-04-25 21:04 14.86490 -19.21524 37909 ft 484 kts 129°
2026-04-25 21:04 14.82408 -19.15947 37911 ft 485 kts 129°
2026-04-25 21:05 14.78366 -19.10430 37910 ft 485 kts 129°
2026-04-25 21:05 14.74268 -19.04839 37909 ft 485 kts 129°
2026-04-25 21:06 14.70674 -18.99939 37913 ft 484 kts 129°
2026-04-25 21:06 14.66621 -18.94417 37911 ft 484 kts 129°
2026-04-25 21:07 14.62560 -18.88888 37904 ft 483 kts 129°
2026-04-25 21:07 14.58492 -18.83354 37893 ft 482 kts 129°
2026-04-25 21:08 14.54436 -18.77839 37889 ft 482 kts 129°
2026-04-25 21:08 14.50413 -18.72373 37887 ft 482 kts 129°
2026-04-25 21:09 14.44345 -18.64136 37834 ft 478 kts 128°
2026-04-25 21:09 14.42318 -18.61386 37501 ft 478 kts 129°
2026-04-25 21:09 14.40295 -18.58643 36944 ft 483 kts 128°
2026-04-25 21:10 14.38252 -18.55875 36389 ft 489 kts 128°
2026-04-25 21:10 14.36185 -18.53073 36031 ft 490 kts 128°
2026-04-25 21:10 14.34129 -18.50288 35809 ft 488 kts 128°
2026-04-25 21:10 14.32090 -18.47526 35412 ft 488 kts 128°
2026-04-25 21:11 14.30032 -18.44741 34942 ft 488 kts 128°
2026-04-25 21:11 14.27973 -18.41954 34292 ft 490 kts 128°
2026-04-25 21:11 14.25918 -18.39174 33469 ft 496 kts 128°
2026-04-25 21:11 14.23786 -18.36292 32273 ft 510 kts 128°
2026-04-25 21:12 14.21620 -18.33366 30827 ft 529 kts 127°
2026-04-25 21:12 14.19356 -18.30307 29594 ft 540 kts 127°
2026-04-25 21:12 14.17093 -18.27249 29121 ft 534 kts 127°
2026-04-25 21:12 14.15609 -18.25246 28986 ft 522 kts 127°
2026-04-25 21:13 14.12750 -18.21385 28813 ft 500 kts 127°
2026-04-25 21:13 14.10645 -18.18544 28372 ft 492 kts 127°
2026-04-25 21:13 14.08594 -18.15777 27772 ft 490 kts 127°
2026-04-25 21:13 14.06537 -18.12974 27204 ft 486 kts 124°
2026-04-25 21:14 14.04832 -18.10042 26694 ft 480 kts 115°
2026-04-25 21:14 14.03600 -18.06886 26205 ft 473 kts 105°
2026-04-25 21:14 14.02882 -18.03627 25750 ft 466 kts 96°
2026-04-25 21:14 14.02684 -18.00320 25271 ft 460 kts 86°
2026-04-25 21:15 14.03010 -17.97075 24797 ft 454 kts 77°
2026-04-25 21:15 14.03831 -17.93974 24322 ft 448 kts 68°
2026-04-25 21:15 14.05120 -17.91063 23912 ft 445 kts 59°
2026-04-25 21:15 14.06658 -17.88333 23657 ft 442 kts 57°
2026-04-25 21:16 14.08261 -17.85670 23341 ft 442 kts 56°
2026-04-25 21:16 14.09938 -17.83023 22792 ft 439 kts 55°
2026-04-25 21:16 14.11656 -17.80422 22111 ft 435 kts 54°
2026-04-25 21:16 14.13376 -17.77891 21432 ft 429 kts 53°
2026-04-25 21:17 14.15077 -17.75435 20763 ft 425 kts 53°
2026-04-25 21:17 14.16794 -17.72994 20138 ft 419 kts 52°
2026-04-25 21:17 14.18507 -17.70581 19893 ft 416 kts 52°
2026-04-25 21:17 14.20236 -17.68167 19861 ft 419 kts 52°
2026-04-25 21:18 14.21939 -17.65799 19865 ft 400 kts 52°
2026-04-25 21:18 14.23563 -17.63547 19855 ft 383 kts 52°
2026-04-25 21:18 14.25110 -17.61407 19853 ft 366 kts 51°
2026-04-25 21:18 14.26606 -17.59340 19848 ft 352 kts 51°
2026-04-25 21:19 14.28068 -17.57324 19859 ft 353 kts 51°
2026-04-25 21:19 14.29547 -17.55290 19863 ft 354 kts 51°
2026-04-25 21:19 14.31014 -17.53272 19860 ft 353 kts 51°
2026-04-25 21:19 14.32486 -17.51249 19862 ft 353 kts 51°
2026-04-25 21:20 14.33978 -17.49199 19865 ft 353 kts 51°
2026-04-25 21:20 14.34950 -17.47864 19864 ft 353 kts 51°
2026-04-25 21:20 14.36901 -17.45180 19842 ft 343 kts 51°
2026-04-25 21:20 14.38310 -17.43243 19558 ft 340 kts 51°
2026-04-25 21:21 14.39752 -17.41262 18994 ft 346 kts 51°
2026-04-25 21:21 14.41193 -17.39280 18420 ft 351 kts 51°
2026-04-25 21:21 14.42671 -17.37247 17966 ft 351 kts 51°
2026-04-25 21:21 14.44103 -17.35274 17874 ft 338 kts 51°
2026-04-25 21:22 14.45471 -17.33324 17864 ft 329 kts 53°
2026-04-25 21:22 14.46766 -17.31340 17547 ft 340 kts 54°
2026-04-25 21:22 14.48093 -17.29286 16966 ft 346 kts 54°
2026-04-25 21:22 14.49379 -17.27215 16381 ft 351 kts 62°
2026-04-25 21:23 14.50084 -17.24817 15927 ft 351 kts 84°
2026-04-25 21:23 14.49893 -17.22372 15847 ft 336 kts 107°
2026-04-25 21:23 14.48889 -17.20235 15442 ft 332 kts 129°
2026-04-25 21:23 14.47166 -17.18648 14913 ft 331 kts 152°
2026-04-25 21:24 14.45022 -17.17868 14372 ft 329 kts 171°
2026-04-25 21:24 14.42747 -17.17511 13841 ft 331 kts 174°
2026-04-25 21:24 14.40452 -17.17210 13304 ft 333 kts 174°
2026-04-25 21:24 14.38145 -17.16922 12752 ft 335 kts 174°
2026-04-25 21:25 14.35832 -17.16638 12289 ft 329 kts 174°
2026-04-25 21:25 14.33580 -17.16364 11913 ft 321 kts 174°
2026-04-25 21:25 14.31382 -17.16097 11539 ft 315 kts 174°
2026-04-25 21:25 14.29215 -17.15833 11160 ft 309 kts 174°
2026-04-25 21:26 14.27147 -17.15373 10768 ft 305 kts 157°
2026-04-25 21:26 14.25424 -17.14130 10367 ft 302 kts 132°
2026-04-25 21:26 14.24386 -17.12282 9995 ft 298 kts 107°
2026-04-25 21:26 14.24163 -17.10172 9594 ft 297 kts 84°
2026-04-25 21:27 14.24750 -17.08181 9151 ft 296 kts 61°
2026-04-25 21:27 14.26068 -17.06567 8701 ft 295 kts 38°
2026-04-25 21:27 14.27887 -17.05624 8233 ft 295 kts 15°
2026-04-25 21:27 14.29943 -17.05494 7756 ft 294 kts 353°
2026-04-25 21:28 14.31945 -17.05840 7300 ft 293 kts 349°
2026-04-25 21:28 14.33946 -17.06241 6879 ft 290 kts 349°
2026-04-25 21:28 14.35918 -17.06641 6491 ft 287 kts 349°
2026-04-25 21:28 14.37883 -17.06833 6101 ft 282 kts 359°
2026-04-25 21:29 14.39863 -17.06846 5705 ft 279 kts 360°
2026-04-25 21:29 14.41803 -17.06861 5315 ft 276 kts 360°
2026-04-25 21:29 14.43703 -17.06884 4992 ft 271 kts 359°
2026-04-25 21:29 14.45590 -17.06918 4536 ft 271 kts 359°
2026-04-25 21:30 14.47460 -17.06956 4045 ft 255 kts 359°
2026-04-25 21:30 14.49161 -17.07024 3584 ft 237 kts 358°
2026-04-25 21:30 14.50744 -17.07094 3280 ft 218 kts 359°
2026-04-25 21:30 14.51739 -17.07126 3106 ft 205 kts 359°
2026-04-25 21:31 14.53527 -17.07156 2750 ft 182 kts
2026-04-25 21:31 14.54766 -17.07168 2501 ft 173 kts
2026-04-25 21:31 14.55934 -17.07179 2266 ft 160 kts
2026-04-25 21:31 14.56981 -17.07189 2050 ft 136 kts 360°
2026-04-25 21:32 14.57870 -17.07198 1870 ft 123 kts 360°
2026-04-25 21:32 14.58708 -17.07205 1692 ft 116 kts 360°
2026-04-25 21:32 14.59514 -17.07212 1526 ft 116 kts 360°
2026-04-25 21:32 14.60339 -17.07219 1354 ft 117 kts 359°
2026-04-25 21:33 14.61156 -17.07228 1183 ft 117 kts 360°
2026-04-25 21:33 14.61979 -17.07230 1001 ft 116 kts
2026-04-25 21:33 14.62804 -17.07233 853 ft 117 kts 359°
2026-04-25 21:33 14.63655 -17.07248 670 ft 118 kts 359°
2026-04-25 21:34 14.64483 -17.07256 531 ft 119 kts 359°
2026-04-25 21:34 14.65320 -17.07262 378 ft 120 kts 359°
2026-04-25 21:34 14.66133 -17.07274 306 ft 104 kts 358°
2026-04-25 21:34 14.66677 -17.07278 308 ft 55 kts 359°
2026-04-25 21:35 14.67028 -17.07283 314 ft 40 kts
2026-04-25 21:35 14.67297 -17.07282 313 ft 37 kts 360°
2026-04-25 21:35 14.67558 -17.07279 307 ft 37 kts
2026-04-25 21:35 14.67749 -17.07221 300 ft 19 kts 27°
2026-04-25 21:36 14.67835 -17.07166 296 ft 5 kts 52°
2026-04-25 21:36 14.67841 -17.07156 296 ft 0 kts 57°
2026-04-25 21:36 14.67843 -17.07153 296 ft 1 kts 64°
2026-04-25 21:36 14.67841 -17.07131 296 ft 4 kts 112°
2026-04-25 21:37 14.67805 -17.07103 296 ft 8 kts 165°
2026-04-25 21:37 14.67759 -17.07098 297 ft 13 kts 176°
2026-04-25 21:37 14.67590 -17.07094 299 ft 20 kts 179°
2026-04-25 21:37 14.67436 -17.07094 301 ft 22 kts 181°
2026-04-25 21:38 14.67300 -17.07094 304 ft 14 kts 180°
2026-04-25 21:38 14.67191 -17.07091 305 ft 16 kts 179°
2026-04-25 21:38 14.67083 -17.07083 306 ft 10 kts 140°
2026-04-25 21:38 14.67088 -17.07002 305 ft 12 kts 56°
2026-04-25 21:39 14.67166 -17.06974 304 ft 12 kts 352°
2026-04-25 21:39 14.67234 -17.06973 303 ft 4 kts 42°
2026-04-25 21:39 14.67237 -17.06962 303 ft 2 kts 97°
2026-04-25 21:39 14.67223 -17.06936 304 ft 8 kts 121°
2026-04-25 21:40 14.67190 -17.06882 305 ft 7 kts 122°
2026-04-25 21:40 14.67181 -17.06867 305 ft 0 kts 122°